PRAETORIAN SDA_620

基本信息
目录编号:
65584
目录名称:
PRAETORIAN SDA_621
国际标识:
2025-203V
轨道中心:
EARTH
卫星名称:
PRAETORIAN SDA_620
卫星全名:
PRAETORIAN SDA_620
卫星状态:
在轨 (已飞行41 天)
发射日期:
2025-09-10 UTC
国别 :
美国 (US)
星等 :
--
轨道信息
数据来源 国际轨道数据
星历时间: 2025-10-21T04:54:08+0800
12小时前
查看轨道信息
半长轴: 7323.973km
偏心率: 0.0009934
轨道倾角: 81.302°
近地点辐角 115.606°
升交点赤经 232.437°
平近点角 244.612°
近地点: 938.562km
远地点: 953.114km
周期: 103.963分钟
每日圈数: 13.85105
详细信息
使用方式:
暂无
2D轨道图
3D轨道图
轨道高度分析图
轨道倾角分析图
轨道综合分析图
查看轨道综合分析图